This demonstration page uses our WeatherBlox Daily Observations layout. Learn more.

Left ArrowRight Arrow

Hourly Observations for September 6, 2019

Temp ( °F °C ) Dew Point ( °F °C ) Humidity (%) Winds ( mph kmh ) Pressure ( in mb ) Visibility ( mi km ) Precip ( " mm )
12:54 am 00:54 Clear 74 23.3 71 21.7 91 91 N 6 9 29.98 1015 8 13 0.00 0.00
1:54 am 01:54 Clear 73 22.8 70 21.1 90 90 N 8 13 29.98 1015 9 14 0.00 0.00
2:54 am 02:54 Clear 73 22.8 69 20.6 87 87 N 9 15 30.00 1016 9 14 0.00 0.00
3:54 am 03:54 Clear 71 21.7 66 18.9 84 84 N 10 17 30.00 1016 10 16 0.00 0.00
4:54 am 04:54 Clear 68 20 63 17.2 84 84 N 8 13 30.04 1017 10 16 0.00 0.00
5:54 am 05:54 Clear 66 18.9 62 16.7 87 87 N 10 17 30.05 1018 10 16 0.00 0.00
6:54 am 06:54 Clear 63 17.2 60 15.6 90 90 N 10 17 30.08 1019 10 16 0.00 0.00
7:54 am 07:54 Sunny 64 17.8 60 15.6 87 87 N 9 15 30.11 1020 10 16 0.00 0.00
8:54 am 08:54 Sunny 67 19.4 61 16.1 81 81 NNE 10 17 30.12 1020 10 16 0.00 0.00
9:54 am 09:54 Sunny 71 21.7 59 15 66 66 NNE 12 19 30.13 1020 10 16 0.00 0.00
10:54 am 10:54 Sunny 74 23.3 58 14.4 57 57 N 8 13 30.14 1021 10 16 0.00 0.00
11:54 am 11:54 Sunny 77 25 59 15 54 54 N 10 17 30.14 1021 10 16 0.00 0.00
12:54 pm 12:54 Sunny 79 26.1 57 13.9 47 47 NNE 9 15 30.13 1020 10 16 0.00 0.00
1:54 pm 13:54 Sunny 82 27.8 57 13.9 42 42 ENE 10 17 30.12 1020 10 16 0.00 0.00
2:54 pm 14:54 Sunny 83 28.3 55 12.8 38 38 NNE 14 22 30.11 1020 10 16 0.00 0.00
3:54 pm 15:54 Sunny 81 27.2 56 13.3 42 42 NE 13 20 30.10 1019 10 16 0.00 0.00
4:54 pm 16:54 Sunny 80 26.7 56 13.3 44 44 NNE 12 19 30.09 1019 10 16 0.00 0.00
5:54 pm 17:54 Sunny 80 26.7 58 14.4 47 47 NNE 10 17 30.10 1019 10 16 0.00 0.00
6:54 pm 18:54 Sunny 78 25.6 59 15 52 52 NE 5 7 30.10 1019 10 16 0.00 0.00
7:54 pm 19:54 Clear 69 20.6 60 15.6 73 73 NNE 5 7 30.09 1019 10 16 0.00 0.00
8:54 pm 20:54 Clear 67 19.4 60 15.6 79 79 N 3 6 30.10 1019 10 16 0.00 0.00
9:54 pm 21:54 Clear 67 19.4 60 15.6 79 79 Calm 30.10 1019 10 16 0.00 0.00
10:54 pm 22:54 Clear 69 20.6 60 15.6 73 73 Calm 30.11 1020 10 16 0.00 0.00
11:54 pm 23:54 Clear 66 18.9 60 15.6 81 81 N 6 9 30.11 1020 10 16 0.00 0.00

Powered by AerisWeather